          26 14  21 49.09  +39 59.1   3.744  4.452    23.5 / 255  16.9   93  .58

          27 14  21 47.11  +39 53.1   3.734  4.445    23.7 / 255  16.8   85  .67

          28 14  21 45.13  +39 46.8   3.724  4.437    23.8 / 254  16.8   78  .76

          29 14  21 43.15  +39 40.1   3.715  4.430    23.9 / 253  16.8   71  .84

          30 14  21 41.18  +39 33.0   3.706  4.423    24.0 / 252  16.8   65  .90

          31 14  21 39.20  +39 25.6   3.697  4.415    24.1 / 251  16.8   60  .95

     Sept. 1 14  21 37.23  +39 17.9   3.689  4.408    24.2 / 251  16.8   56  .98

           2 14  21 35.27  +39 09.8   3.681  4.401    24.3 / 250  16.8   55 1.00

           3 14  21 33.31  +39 01.3   3.674  4.394    24.4 / 249  16.8   55  .99

           4 14  21 31.36  +38 52.5   3.667  4.386    24.5 / 248  16.7   57  .97

           5 14  21 29.42  +38 43.4   3.660  4.379    24.5 / 247  16.7   60  .93

           6 14  21 27.49  +38 34.0   3.653  4.372    24.6 / 247  16.7   66  .88

           7 14  21 25.57  +38 24.2   3.647  4.365    24.6 / 246  16.7   72  .81

           8 14  21 23.66  +38 14.1   3.642  4.357    24.7 / 245  16.7   79  .72

           9 14  21 21.76  +38 03.6   3.636  4.350    24.7 / 244  16.7   87  .63

          10 14  21 19.88  +37 52.9   3.631  4.343    24.7 / 244  16.7   95  .52

          11 14  21 18.02  +37 41.9   3.627  4.336    24.7 / 243  16.7  103  .41

          12 14  21 16.17  +37 30.5   3.622  4.328    24.7 / 242  16.7  110  .31

          13 14  21 14.34  +37 18.9   3.618  4.321    24.7 / 241  16.6  117  .21

          14 14  21 12.52  +37 07.0   3.615  4.314    24.7 / 241  16.6  122  .12

          15 14  21 10.73  +36 54.8   3.611  4.307    24.7 / 240  16.6  125  .05

NAKANO

         **** Don't distribute anyone except personal use only ****

                (C) Copyright 2001 OAA/ComputingSection

write mail from CFAD0::NAKANO on 2001-08-17 04:17:41(JST).

 





    C/2001 N2 (LINEAR) 

T 2002 Aug. 19.58234 TT                                 Nakano

q   2.6568417            (2000.0)            P               Q

                   Peri.  152.23347     -0.25519151     -0.81019958

                   Node    52.89665     -0.96342935     +0.25920754

e   1.0            Incl.  138.57519     -0.08173854     -0.52572626

From 36 observations 2001 July 11-27.

Residuals in seconds of arc 

2001/                     010712 596  0.6+  1.5+    010722 342  0.2+  0.2-  

010711 704 (2.2+  2.3-)   010712 596  0.4-  1.4+    010722 342  0.2-  1.0-  

010711 704 (1.1+  2.4-)   010712 596  0.7+  0.3+    010724 470  0.6-  0.0   

010711 704  0.1+  1.1-    010713 673  0.7-  1.2+    010724 470  0.2-  0.0   

010711 704 (2.8+  2.8-)   010713 673  0.6-  1.3+    010724 360  0.2-  0.2+  

010711 704  0.1+  1.3-    010715 046  0.0   0.0     010724 360  0.1-  0.0   

010712 952  0.0   0.2+    010715 046  0.1-  0.1-    010724 170  1.1+  0.1-  

010712 952  0.1-  0.2-    010715 046  0.1-  0.2-    010724 170  0.1+  0.4+  

010712 952  0.6+  0.0     010715 046  0.3-  0.0     010724 170  0.9-  0.5+  

010712 704  0.0   0.6-    010718 952 (1.9-  2.0+)   010724 170  0.2+  0.1-  

010712 704  0.7+  0.6-    010718 952  0.0   1.0-    010724 170  0.6+  0.0   

010712 704  0.1+  0.1+    010718 952  1.8+  1.7-    010727 170  0.4+  0.0   

010712 704  1.2-  0.0     010721 204  0.5-  0.5+    010727 170  0.4-  0.5+  

010712 704  0.3-  0.0     010721 204  0.3-  0.0     



NAKANO

         **** Don't distribute anyone except personal use only ****

                (C) Copyright 2001 OAA/ComputingSection

write mail from CFAD0::NAKANO on 2001-07-31 23:54:42(JST).

 





◎C/2001 N2の軌道と予報位置です



 7月22日に宍喰(前野拓)で,我が国で初めて観測されました.



    C/2001 N2 (LINEAR) 

T 2002 Aug. 20.02885 TT                                 Nakano

q   2.6727921            (2000.0)            P               Q

                   Peri.  151.80403     -0.25150612     -0.81167620

                   Node    52.75896     -0.96476808     +0.25372261

e   1.0            Incl.  138.53097     -0.07724782     -0.52612411

From 26 observations 2001 July 11-22.

 

Date/        TT  R.A.(2000) Decl.     Delta   r     Daily motion  Mag.  Moon Age

              h    h  m       。  ,                      ,  / PA 。  m1      。

2001 July 20 14  22 52.46  +39 55.9   4.322  4.726    15.7 / 287  16.9  104  .00

          21 14  22 51.16  +40 00.5   4.302  4.719    15.9 / 286  16.9  113  .01

          22 14  22 49.83  +40 05.0   4.283  4.711    16.1 / 285  16.9  121  .05

          23 14  22 48.47  +40 09.3   4.263  4.704    16.4 / 285  16.9  128  .11

          24 14  22 47.09  +40 13.3   4.244  4.696    16.6 / 284  16.9  131  .20

          25 14  22 45.67  +40 17.2   4.225  4.689    16.9 / 283  16.8  131  .30

          26 14  22 44.24  +40 20.9   4.206  4.682    17.1 / 282  16.8  128  .41

          27 14  22 42.77  +40 24.4   4.188  4.674    17.3 / 281  16.8  122  .52

          28 14  22 41.28  +40 27.6   4.169  4.667    17.6 / 280  16.8  116  .62

          29 14  22 39.76  +40 30.7   4.151  4.660    17.8 / 279  16.8  108  .72

          30 14  22 38.22  +40 33.5   4.133  4.652    18.0 / 278  16.8  100  .81

          31 14  22 36.66  +40 36.0   4.115  4.645    18.3 / 277  16.7   92  .88

     Aug.  1 14  22 35.06  +40 38.3   4.098  4.638    18.5 / 277  16.7   84  .94

           2 14  22 33.45  +40 40.4   4.080  4.630    18.7 / 276  16.7   76  .97

           3 14  22 31.81  +40 42.2   4.063  4.623    19.0 / 275  16.7   69 1.00

           4 14  22 30.14  +40 43.8   4.046  4.615    19.2 / 274  16.7   62 1.00

           5 14  22 28.46  +40 45.0   4.030  4.608    19.4 / 273  16.7   57  .98

           6 14  22 26.75  +40 46.0   4.013  4.601    19.7 / 272  16.6   53  .95

           7 14  22 25.02  +40 46.7   3.997  4.593    19.9 / 271  16.6   51  .90

           8 14  22 23.26  +40 47.1   3.981  4.586    20.1 / 270  16.6   52  .84

           9 14  22 21.49  +40 47.3   3.966  4.579    20.4 / 270  16.6   54  .76

          10 14  22 19.70  +40 47.1   3.950  4.571    20.6 / 269  16.6   58  .67

          11 14  22 17.89  +40 46.6   3.935  4.564    20.8 / 268  16.6   64  .58

          12 14  22 16.06  +40 45.8   3.921  4.557    21.0 / 267  16.6   71  .47

          13 14  22 14.21  +40 44.7   3.906  4.549    21.2 / 266  16.5   79  .37

          14 14  22 12.35  +40 43.2   3.892  4.542    21.4 / 265  16.5   87  .27

          15 14  22 10.47  +40 41.5   3.878  4.535    21.6 / 265  16.5   96  .17

          16 14  22 08.58  +40 39.4   3.864  4.527    21.8 / 264  16.5  105  .09

          17 14  22 06.68  +40 36.9   3.851  4.520    22.0 / 263  16.5  113  .04

          18 14  22 04.76  +40 34.1   3.838  4.513    22.2 / 262  16.5  120  .01

          19 14  22 02.83  +40 31.0   3.826  4.506    22.4 / 261  16.5  125  .00

          20 14  22 00.89  +40 27.5   3.813  4.498    22.6 / 260  16.4  127  .03

NAKANO

         **** Don't distribute anyone except personal use only ****

                (C) Copyright 2001 OAA/ComputingSection

write mail from CFAD0::NAKANO on 2001-07-24 02:43:05(JST).

 

戻ります。